Weather History for Porterville, CA

Change the Weather History Date:

Wednesday, January 22, 2014

  Actual Average Record
Temperature  
Mean Temperature 52 °F -  
Max Temperature 66 °F 59 °F 74 °F (1989)
Min Temperature 37 °F 38 °F 24 °F (2007)
Degree Days  
Heating Degree Days 14    
Growing Degree Days 2 (Base 50)    
Moisture  
Dew Point 34 °F    
Average Humidity 57    
Maximum Humidity 87    
Minimum Humidity 30    
Precipitation  
Precipitation 0.00 in - - ()
Sea Level Pressure  
Sea Level Pressure 30.06 in    
Wind  
Wind Speed 4 mph (East)    
Max Wind Speed 8 mph    
Max Gust Speed -    
Visibility 5 miles    
Events      
Averages and records for this station are not official NWS values.
T = Trace of Precipitation, MM = Missing Value Source: NWS Daily Summary

Daily Weather History Graph

Daily Weather History Graph

Search for Another Location

Airport:

Trip Planner

Search our weather history database for the weather conditions in past years. The results will help you decide how hot, cold, wet, or windy it might be!

Date:

Astronomy

Jan. 22, 2014 Rise Set
Actual Time 7:03 AM PST 5:12 PM PST
Civil Twilight 6:35 AM PST 5:40 PM PST
Nautical Twilight 6:04 AM PST 6:11 PM PST
Astronomical Twilight 5:34 AM PST 6:42 PM PST
Moon 11:36 PM PST (1/22) 10:19 AM PST (1/22)
Length of Visible Light 11h 04m
Length of Day
10h 09m
Waning Gibbous, 64% of the Moon is Illuminated
Jan 22
Waning Gibbous
Jan 23
Last Quarter
Jan 30
New
Feb 6
First Quarter
Feb 14
Full

Hourly Weather History & Observations

Time (PST) Temp. Windchill Dew Point Humidity Pressure Visibility Wind Dir Wind Speed Gust Speed Precip Events Conditions
12:15 AM 42.8 °F 38.6 °F 33.8 °F 70% 30.20 in 5.0 mi East 6.9 mph - N/A   Clear
12:35 AM 42.8 °F 39.3 °F 35.6 °F 76% 30.19 in 4.0 mi East 5.8 mph - N/A   Clear
12:55 AM 42.8 °F 41.1 °F 33.8 °F 70% 30.18 in 5.0 mi East 3.5 mph - N/A   Clear
1:15 AM 42.8 °F - 33.8 °F 70% 30.17 in 5.0 mi Calm Calm - N/A   Clear
1:35 AM 42.8 °F - 33.8 °F 70% 30.17 in 5.0 mi Calm Calm - N/A   Clear
1:55 AM 42.8 °F 41.1 °F 33.8 °F 70% 30.17 in 5.0 mi East 3.5 mph - N/A   Clear
2:15 AM 42.8 °F 41.1 °F 35.6 °F 76% 30.16 in 5.0 mi ESE 3.5 mph - N/A   Clear
2:35 AM 42.8 °F 41.1 °F 33.8 °F 70% 30.16 in 5.0 mi ESE 3.5 mph - N/A   Clear
2:55 AM 42.8 °F 40.1 °F 33.8 °F 70% 30.16 in 5.0 mi ESE 4.6 mph - N/A   Clear
3:15 AM 42.8 °F 39.3 °F 35.6 °F 76% 30.15 in 5.0 mi ESE 5.8 mph - N/A   Clear
3:35 AM 42.8 °F 39.3 °F 33.8 °F 70% 30.14 in 5.0 mi East 5.8 mph - N/A   Clear
3:55 AM 42.8 °F 40.1 °F 33.8 °F 70% 30.14 in 6.0 mi East 4.6 mph - N/A   Clear
4:15 AM 42.8 °F 41.1 °F 33.8 °F 70% 30.13 in 5.0 mi East 3.5 mph - N/A   Clear
4:35 AM 42.8 °F - 33.8 °F 70% 30.13 in 5.0 mi Calm Calm - N/A   Clear
4:55 AM 42.8 °F 40.1 °F 33.8 °F 70% 30.12 in 5.0 mi East 4.6 mph - N/A   Clear
5:15 AM 42.8 °F - 33.8 °F 70% 30.12 in 5.0 mi Calm Calm - N/A   Clear
5:35 AM 41.0 °F - 32.0 °F 70% 30.12 in 5.0 mi Calm Calm - N/A   Clear
5:55 AM 41.0 °F - 33.8 °F 76% 30.12 in 5.0 mi Calm Calm - N/A   Clear
6:15 AM 39.2 °F 37.0 °F 33.8 °F 81% 30.12 in 5.0 mi ESE 3.5 mph - N/A   Clear
6:35 AM 39.2 °F 35.9 °F 35.6 °F 87% 30.11 in 5.0 mi ESE 4.6 mph - N/A   Clear
6:55 AM 39.2 °F - 33.8 °F 81% 30.12 in 5.0 mi Calm Calm - N/A   Clear
7:15 AM 41.0 °F - 32.0 °F 70% 30.12 in 5.0 mi Calm Calm - N/A   Clear
7:35 AM 37.4 °F 32.8 °F 30.2 °F 75% 30.12 in 5.0 mi SSE 5.8 mph - N/A   Clear
7:55 AM 39.2 °F 34.2 °F 32.0 °F 75% 30.11 in 4.0 mi SSE 6.9 mph - N/A   Clear
8:15 AM 42.8 °F 40.1 °F 33.8 °F 70% 30.12 in 5.0 mi East 4.6 mph - N/A   Clear
8:35 AM 44.6 °F 43.1 °F 33.8 °F 66% 30.12 in 5.0 mi ESE 3.5 mph - N/A   Clear
8:55 AM 50.0 °F - 35.6 °F 58% 30.13 in 4.0 mi Calm Calm - N/A   Clear
9:15 AM 53.6 °F - 35.6 °F 51% 30.13 in 4.0 mi Calm Calm - N/A   Clear
9:35 AM 53.6 °F - 35.6 °F 51% 30.13 in 4.0 mi West 3.5 mph - N/A   Clear
9:55 AM 53.6 °F - 35.6 °F 51% 30.13 in 4.0 mi Calm Calm - N/A   Clear
10:15 AM 55.4 °F - 35.6 °F 47% 30.13 in 4.0 mi Calm Calm - N/A   Clear
10:35 AM 57.2 °F - 35.6 °F 44% 30.12 in 3.0 mi Calm Calm - N/A   Clear
10:55 AM 59.0 °F - 35.6 °F 42% 30.11 in 3.0 mi NNW 3.5 mph - N/A   Clear
11:15 AM 60.8 °F - 37.4 °F 42% 30.10 in 4.0 mi NW 5.8 mph - N/A   Clear
11:35 AM 60.8 °F - 35.6 °F 39% 30.09 in 4.0 mi West 4.6 mph - N/A   Clear
11:55 AM 62.6 °F - 37.4 °F 39% 30.08 in 4.0 mi Calm Calm - N/A   Clear
12:15 PM 62.6 °F - 35.6 °F 37% 30.06 in 4.0 mi Calm Calm - N/A   Clear
12:35 PM 62.6 °F - 33.8 °F 34% 30.05 in 4.0 mi Calm Calm - N/A   Clear
12:55 PM 64.4 °F - 33.8 °F 32% 30.04 in 4.0 mi Calm Calm - N/A   Clear
1:15 PM 64.4 °F - 33.8 °F 32% 30.03 in 4.0 mi West 5.8 mph - N/A   Clear
1:35 PM 66.2 °F - 33.8 °F 30% 30.02 in 4.0 mi West 3.5 mph - N/A   Clear
1:55 PM 64.4 °F - 33.8 °F 32% 30.01 in 4.0 mi Calm Calm - N/A   Clear
2:15 PM 66.2 °F - 33.8 °F 30% 30.01 in 4.0 mi WNW 4.6 mph - N/A   Clear
2:35 PM 66.2 °F - 33.8 °F 30% 30.00 in 4.0 mi WNW 3.5 mph - N/A   Clear
2:55 PM 66.2 °F - 33.8 °F 30% 30.00 in 4.0 mi Calm Calm - N/A   Clear
3:15 PM 66.2 °F - 33.8 °F 30% 29.99 in 4.0 mi West 3.5 mph - N/A   Clear
3:35 PM 66.2 °F - 35.6 °F 32% 29.99 in 4.0 mi Calm Calm - N/A   Clear
3:55 PM 66.2 °F - 35.6 °F 32% 29.99 in 4.0 mi WNW 6.9 mph - N/A   Clear
4:15 PM 64.4 °F - 35.6 °F 34% 29.99 in 4.0 mi West 4.6 mph - N/A   Clear
4:35 PM 64.4 °F - 35.6 °F 34% 29.99 in 4.0 mi West 3.5 mph - N/A   Clear
4:55 PM 62.6 °F - 37.4 °F 39% 29.99 in 4.0 mi WNW 3.5 mph - N/A   Clear
5:15 PM 59.0 °F - 37.4 °F 45% 29.98 in 3.0 mi WNW 3.5 mph - N/A   Clear
5:35 PM 57.2 °F - 37.4 °F 48% 29.98 in 3.0 mi WNW 4.6 mph - N/A   Clear
5:55 PM 53.6 °F - 35.6 °F 51% 29.98 in 5.0 mi WNW 3.5 mph - N/A   Clear
6:15 PM 53.6 °F - 37.4 °F 54% 29.98 in 5.0 mi WNW 3.5 mph - N/A   Clear
6:35 PM 53.6 °F - 37.4 °F 54% 29.98 in 5.0 mi Calm Calm - N/A   Clear
6:55 PM 48.2 °F - 37.4 °F 66% 29.97 in 5.0 mi Calm Calm - N/A   Clear
7:15 PM 46.4 °F 42.9 °F 35.6 °F 66% 29.97 in 4.0 mi ESE 6.9 mph - N/A   Clear
7:35 PM 46.4 °F 42.4 °F 37.4 °F 71% 29.97 in 4.0 mi ESE 8.1 mph - N/A   Clear
7:55 PM 44.6 °F 40.2 °F 33.8 °F 66% 29.97 in 4.0 mi ESE 8.1 mph - N/A   Clear
8:15 PM 46.4 °F 42.4 °F 33.8 °F 62% 29.97 in 5.0 mi East 8.1 mph - N/A   Clear
8:35 PM 46.4 °F 42.9 °F 33.8 °F 62% 29.97 in 5.0 mi ESE 6.9 mph - N/A   Clear
8:55 PM 44.6 °F 41.4 °F 32.0 °F 61% 29.98 in 5.0 mi ESE 5.8 mph - N/A   Clear
9:15 PM 44.6 °F 40.7 °F 32.0 °F 61% 29.98 in 5.0 mi ESE 6.9 mph - N/A   Clear
9:35 PM 44.6 °F 40.7 °F 32.0 °F 61% 29.98 in 6.0 mi East 6.9 mph - N/A   Clear
9:55 PM 46.4 °F 43.5 °F 32.0 °F 57% 29.97 in 6.0 mi ESE 5.8 mph - N/A   Clear
10:15 PM 44.6 °F 40.7 °F 32.0 °F 61% 29.97 in 6.0 mi East 6.9 mph - N/A   Clear
10:35 PM 42.8 °F 38.6 °F 30.2 °F 61% 29.97 in 6.0 mi East 6.9 mph - N/A   Clear
10:55 PM 44.6 °F 40.2 °F 30.2 °F 57% 29.97 in 7.0 mi ESE 8.1 mph - N/A   Clear
11:15 PM 44.6 °F 41.4 °F 30.2 °F 57% 29.96 in 7.0 mi East 5.8 mph - N/A   Clear
11:35 PM 44.6 °F 41.4 °F 30.2 °F 57% 29.96 in 7.0 mi East 5.8 mph - N/A   Clear
11:55 PM 44.6 °F 41.4 °F 30.2 °F 57% 29.95 in 7.0 mi East 5.8 mph - N/A   Clear